This demonstration page uses our WeatherBlox Daily Observations layout. Learn more.

Left ArrowRight Arrow

Hourly Observations for October 18, 2015

Temp ( °F °C ) Dew Point ( °F °C ) Humidity (%) Winds ( mph kmh ) Pressure ( in mb ) Visibility ( mi km ) Precip ( " mm )
12:53 am 00:53 Clear 52 11.1 32 0 47 47 N 6 9 30.27 1025 10 16 0.00 0.00
1:53 am 01:53 Clear 47 8.3 36 2.2 66 66 NNW 5 7 30.27 1025 10 16 0.00 0.00
2:53 am 02:53 Clear 46 7.8 34 1.1 63 63 Calm 30.28 1025 10 16 0.00 0.00
3:53 am 03:53 Clear 45 7.2 35 1.7 68 68 Calm 30.28 1026 10 16 0.00 0.00
4:53 am 04:53 Clear 44 6.7 36 2.2 73 73 Calm 30.29 1026 10 16 0.00 0.00
5:53 am 05:53 Clear 40 4.4 36 2.2 86 86 Calm 30.31 1026 10 16 0.00 0.00
6:53 am 06:53 Clear 39 3.9 36 2.2 89 89 Calm 30.34 1027 10 16 0.00 0.00
7:53 am 07:53 Sunny 38 3.3 35 1.7 89 89 Calm 30.37 1028 10 16 0.00 0.00
8:53 am 08:53 Sunny 44 6.7 37 2.8 76 76 Calm 30.40 1029 10 16 0.00 0.00
9:53 am 09:53 Sunny 51 10.6 35 1.7 54 54 ENE 8 13 30.42 1030 10 16 0.00 0.00
10:53 am 10:53 Sunny 55 12.8 33 0.6 44 44 ENE 13 20 30.42 1030 10 16 0.00 0.00
11:53 am 11:53 Sunny 57 13.9 34 1.1 42 42 E 8 13 30.42 1030 10 16 0.00 0.00
12:53 pm 12:53 Sunny 59 15 34 1.1 39 39 NE 8 13 30.41 1030 10 16 0.00 0.00
1:53 pm 13:53 Sunny 61 16.1 34 1.1 36 36 NNW 6 9 30.39 1029 10 16 0.00 0.00
2:53 pm 14:53 Sunny 64 17.8 34 1.1 33 33 VRB 6 9 30.36 1028 10 16 0.00 0.00
3:53 pm 15:53 Sunny 64 17.8 35 1.7 34 34 undefined N/A 30.33 1027 10 16 0.00 0.00
4:53 pm 16:53 Sunny 64 17.8 35 1.7 34 34 WNW 8 13 30.33 1027 10 16 0.00 0.00
5:53 pm 17:53 Sunny 63 17.2 34 1.1 34 34 NNW 6 9 30.33 1027 10 16 0.00 0.00
6:53 pm 18:53 Sunny 60 15.6 36 2.2 41 41 NNW 6 9 30.34 1027 10 16 0.00 0.00
7:53 pm 19:53 Clear 55 12.8 38 3.3 53 53 Calm 30.35 1028 10 16 0.00 0.00
8:53 pm 20:53 Clear 50 10 41 5 71 71 Calm 30.35 1028 10 16 0.00 0.00
9:53 pm 21:53 Clear 47 8.3 41 5 80 80 Calm 30.36 1028 10 16 0.00 0.00
10:53 pm 22:53 Clear 45 7.2 40 4.4 83 83 Calm 30.37 1028 10 16 0.00 0.00
11:53 pm 23:53 Clear 43 6.1 39 3.9 86 86 Calm 30.39 1029 10 16 0.00 0.00

Powered by AerisWeather